Showing default

TECHEDSAT-11, 60208

Orbit data source: Space-Track

TECHEDSAT-11, 60208 is an American payload satellite in SSO that was launched on Thu, 04 Jul 2024 UTC via an FIREFLY ALPHA launch vehicle from the Air Force Western Test Range (AFWTR). Payload-class satellites include a variety of spacecraft equipped with specific instruments for various scientific and technological missions. These include communications satellites like Starlink; space stations such as the ISS; scientific satellites like the Hubble; Earth observation satellites from companies like Planet Labs, Umbra, and HawkEye 360; GPS; miniature CubeSats for education and research; and military/defense satellites.

Loading next visibility...
Identifier
60208, 2024-125F
Orbit
SSO
Country
Flag of USUS
Related business
Manufacturer
ARC
Mission
Operational spacecraft
Bus & Motor
CUBESAT 6UXL, Unknown motor
Mass
10 kg wet, ~10 kg dry
Launch date (UTC)
2024-07-04 (1 year ago)
Launch vehicle
FIREFLY ALPHA
Launch site
Air Force Western Test Range (AFWTR)
Object type
Payload
Rocket body
Debris
Shape & HBR
Unknown
Radar Cross Section
Small (<0.1 m²)

Expand to show TLE details & history
Last TLE update: 10 hours ago

TLE from 10 hours ago
0 TECHEDSAT-11
1 60208U 24125F   25259.56996076  .00015340  00000-0  44942-3 0  9990
2 60208  97.2701 109.0664 0021121 135.2739 225.0212 15.35076553 67093
Epoch: 2025-09-16T13:40Z
TLE epoch observation values (Epoch: 2025-09-16T13:40:44.609Z)
Latitude
-0.00008°
Longitude
-91.87783°
Altitude
474.035 km
Speed
7.623 km/s
True Right ascension
07h 16m 15s
True Declination
0° 00' 00"
Sunlit
Object was in daylight at epoch
Visualization orbit readout
Latitude
Unknown
Longitude
Unknown
Altitude
Unknown
Speed
Unknown
Apparent Right ascension
Unknown
Apparent Declination
Unknown
Sunlit
N/A
Visualization observer readout
Local Sidereal Time
16:15:32
Azimuth
Unknown
Elevation
Unknown
Doppler factor
Unknown
Orbital elements
Apogee altitude
472.071 km
Perigee altitude
443.195 km
Semi-major axis
6,835.77 km
Eccentricity
0.00211
Inclination
97.2701°
RAAN
109.0664°
Arg. of periapsis
135.2739°
True anomaly
224.85032°
Mean anomaly
225.0212°
Eccentric anomaly
224.93573°
Mean motion
3.84027 °/min
Orbital period
93.74 mins
BSTAR
0.00044942
Loading maneuver chart data...
Computing Atmospheric mass density...
Loading historical data...
Loading historical data...
Loading historical data...
Loading historical data...
Loading historical data...
Loading historical data...
Loading historical data...

Documentation

Showing up to 5 results
|